Regional Weather Roundup
Issued by NWS

Home | Current Version | Previous Version | Text Only | Print | Product List | Glossary Off
Versions: 1 2 3 4 5 6 7 8 9 10 11 12 13 14 15 16 17 18 19 20 21 22 23 24 25 26 27 28 29 30 31 32 33 34 35 36 37 38 39 40 41 42 43 44 45 46 47 48 49 50

000
ASUS43 KLSX 162357
RWRMO

WEATHER SUMMARY FOR MISSOURI
NATIONAL WEATHER SERVICE SPRINGFIELD MO
600 PM CST MON JAN 16 2017

NOTE: "FAIR" INDICATES FEW OR NO CLOUDS BELOW 12,000 FEET WITH NO
       SIGNIFICANT WEATHER AND/OR OBSTRUCTIONS TO VISIBILITY.
       CURRENT SKY AND/OR WEATHER CONDITIONS ARE NOT AVAILABLE FOR
       CHILLICOTHE AND FARMINGTON.

MOZ001>031-035>038-043-044-053-054-170100-
...NORTHERN AND WESTERN MISSOURI...

CITY           SKY/WX    TMP DP  RH WIND       PRES   REMARKS
KANSAS CTY INT LGT RAIN  43  42  97 SW14      29.86R FOG
6HR MIN TEMP:  43; 6HR MAX TEMP:  49; 6HR PCP:  0.10;

LEE`S SUMMIT   LGT RAIN  44  50 100 W12       29.87R
6HR MIN TEMP:  44; 6HR MAX TEMP:  57; 6HR PCP:  0.05;

ST JOSEPH      LGT RAIN  42  42 100 SW10      29.86R
6HR MIN TEMP:  38; 6HR MAX TEMP:  43; 6HR PCP:  0.06;

CHILLICOTHE      N/A     44  44 100 CALM      29.85R
6HR MIN TEMP:  39; 6HR MAX TEMP:  46; 6HR PCP:  0.03;


$$
MOZ066>068-077>081-088>096-101>105-170100-
...SOUTHWEST MISSOURI...

CITY           SKY/WX    TMP DP  RH WIND       PRES   REMARKS
SPRINGFIELD    CLEAR     53  50  89 SW8       29.87R
6HR MIN TEMP:  53; 6HR MAX TEMP:  61; 6HR PCP:  0.01;

JOPLIN         CLOUDY    46  41  82 SW12      29.94R
6HR MIN TEMP:  46; 6HR MAX TEMP:  61;

BRANSON        PTCLDY    57  50  77 SW6       29.90R

$$
MOZ032>034-039>042-045>050-055>058-069>072-170100-
...CENTRAL MISSOURI...

CITY           SKY/WX    TMP DP  RH WIND       PRES   REMARKS
COLUMBIA       NOT AVBL
JEFFERSON CITY CLOUDY    55  53  93 SE9       29.85F
6HR MIN TEMP:  51; 6HR MAX TEMP:  57; 6HR PCP:  0.11;

ROLLA          CLOUDY    55  54  96 S9        29.86F
6HR MIN TEMP:  54; 6HR MAX TEMP:  55;

SEDALIA        LGT RAIN  56  52  86 W8        29.85R
6HR MIN TEMP:  55; 6HR MAX TEMP:  62; 6HR PCP:  0.01;

WARRENSBURG    RAIN      50  48  93 SW8       29.84R

$$
MOZ051-052-059>065-170100-
...EAST CENTRAL MISSOURI...

CITY           SKY/WX    TMP DP  RH WIND       PRES   REMARKS
ST LOUIS INTL  CLOUDY    55  53  93 SE5       29.91S FOG
6HR MIN TEMP:  48; 6HR MAX TEMP:  55; 6HR PCP:  0.06;


$$
MOZ072>076-082>087-097>100-106>115-170100-
...SOUTH CENTRAL AND SOUTHEAST MISSOURI...

CITY           SKY/WX    TMP DP  RH WIND       PRES   REMARKS
CAPE GIRARDEAU LGT RAIN  60  56  86 SE9       29.96R
6HR MIN TEMP:  52; 6HR MAX TEMP:  61; 6HR PCP:  0.11;

FARMINGTON     RAIN      55  55 100 S8        29.93S FOG
POPLAR BLUFF   CLOUDY    61  60  97 S14       29.93S
6HR MIN TEMP:  53; 6HR MAX TEMP:  61; 6HR PCP:  0.07;

WEST PLAINS    CLOUDY    58  58 100 S8        29.91R
6HR MIN TEMP:  52; 6HR MAX TEMP:  58; 6HR PCP:  0.07;


$$



USA.gov is the U.S. government's official web portal to all federal, state and local government web resources and services.